Starlink 11619

operational
NORAD ID: 63272 Int'l Des: 2025-053 Owner: SPXS Country: US Constellation: starlink
LEOCIRCULAR

Über Starlink 11619

Beschreibung wird geladen...

Live-Position

3D-Globus wird geladen...

Nächste Überflüge

Höhenverlauf

Altitude vs Time

uPlot chart will show altitude changes over time

Zweizeiliger Elementsatz

1 63272U 25053H 25307.63344426 .00256864 00000-0 19322-2 0 9994
2 63272 42.9988 152.0984 0001604 262.5902 97.4783 15.70985967 37845
Epoch: 3. Nov. 2025 • Age: 11 hours

Aktueller Status

Höhe 354.7 km
Geschwindigkeit 7.70 km/s
Subsatellitenpunkt 6.52°N, 120.44°W
Startdatum 15. März 2025
Alter 0.6 years
Typ internet

Technische Details

Klassifizierung Payload
Masse 960.00 kg
Trockenmasse 910.00 kg
Gesamtmasse 960.00 kg
Länge 0.30 m
Durchmesser 4.10 m
Spannweite 29.00 m
Form Box + pan
Hersteller SPXS
Bus-Typ Starlink V2MD
Phasenstatus In Orbit
Besitzer/Staat SPXS/US

Große Konstellationen

Loading constellations...